FW8535 Weather Reports


Display with metric or nautical units.
time (UTC)temp
F
wind
direction
speed
MPH
gust
MPH
rain 1hr
in
rain 24hr
in
rain mn
in
humidity
%
barometer
mb
20260904141025 67 126 5.0 14.0 0.00 0.00 0.00 85 1008.3
20260904140515 67 111 6.0 14.0 0.00 0.00 0.00 85 1008.4
20260904140014 66 116 6.0 13.0 0.00 0.00 0.00 87 1008.3
20260904135513 65 122 8.0 13.0 0.00 0.00 0.00 89 1008.5
20260904135013 65 101 4.0 12.0 0.00 0.00 0.00 91 1008.3
20260904134510 64 105 6.0 11.0 0.00 0.00 0.00 92 1008.5
20260904134011 63 106 3.0 8.0 0.00 0.00 0.00 94 1008.3
20260904133507 62 85 3.0 8.0 0.00 0.00 0.00 95 1008.4
20260904133007 60 66 1.0 5.0 0.00 0.00 0.00 94 1008.5
20260904132002 60 30 1.0 3.0 0.00 0.00 0.00 93 1008.4
20260904131502 60 30 0.0 2.0 0.00 0.00 0.00 94 1008.4
20260904131002 59 30 0.0 2.0 0.00 0.00 0.00 95 1008.4
20260904130502 59 30 0.0 4.0 0.00 0.00 0.00 95 1008.4
20260904130002 58 30 1.0 4.0 0.00 0.00 0.00 94 1008.4
20260904125601 58 5 0.0 0.0 0.00 0.00 0.00 94 1008.4
20260904125059 57 5 0.0 2.0 0.00 0.00 0.00 94 1008.3
20260904124607 57 5 0.0 2.0 0.00 0.00 0.00 94 1008.4
20260904124056 57 5 0.0 0.0 0.00 0.00 0.00 94 1008.3
20260904123558 57 5 0.0 2.0 0.00 0.00 0.00 94 1008.5
20260904123112 57 5 1.0 3.0 0.00 0.00 0.00 93 1008.4
20260904122058 57 5 1.0 3.0 0.00 0.00 0.00 94 1008.4
20260904121602 56 5 1.0 3.0 0.00 0.00 0.00 93 1008.4
20260904121057 56 5 1.0 3.0 0.00 0.00 0.00 93 1008.4
20260904120557 56 5 0.0 0.0 0.00 0.00 0.00 93 1008.4
20260904120104 56 5 0.0 3.0 0.00 0.00 0.00 93 1008.3
20260904115557 57 5 1.0 3.0 0.00 0.00 0.00 93 1008.4
20260904115057 57 5 0.0 0.0 0.00 0.00 0.00 93 1008.4
20260904114557 57 5 0.0 2.0 0.00 0.00 0.00 93 1008.4
20260904114058 57 5 1.0 3.0 0.00 0.00 0.00 93 1008.4
20260904113557 57 5 0.0 0.0 0.00 0.00 0.00 93 1008.3
20260904113101 57 5 0.0 0.0 0.00 0.00 0.00 93 1008.3
20260904112059 57 5 0.0 0.0 0.00 0.00 0.00 93 1008.3
20260904111558 57 5 0.0 2.0 0.00 0.00 0.00 93 1008.3
20260904111058 56 5 0.0 3.0 0.00 0.00 0.00 93 1008.3
20260904110558 56 5 1.0 3.0 0.00 0.00 0.00 93 1008.3
20260904110105 56 5 1.0 3.0 0.00 0.00 0.00 93 1008.2
20260904105559 55 5 0.0 2.0 0.00 0.00 0.00 92 1008.4
20260904105057 55 5 0.0 0.0 0.00 0.00 0.00 92 1008.2
20260904104601 55 5 0.0 1.0 0.00 0.00 0.00 91 1008.3
20260904104054 56 5 0.0 3.0 0.00 0.00 0.00 91 1008.3
20260904103555 56 5 1.0 3.0 0.00 0.00 0.00 92 1008.3
20260904103054 56 5 1.0 3.0 0.00 0.00 0.00 92 1008.5
20260904102052 56 5 2.0 3.0 0.00 0.00 0.00 92 1008.5
20260904101604 57 5 0.0 3.0 0.00 0.00 0.00 91 1008.4
20260904101052 57 5 0.0 2.0 0.00 0.00 0.00 92 1008.5
20260904100553 56 5 0.0 2.0 0.00 0.00 0.00 91 1008.5
20260904100058 56 5 0.0 3.0 0.00 0.00 0.00 91 1008.6
20260904095550 56 5 1.0 3.0 0.00 0.00 0.00 90 1008.5
20260904095051 57 5 1.0 3.0 0.00 0.00 0.00 90 1008.3
20260904094552 57 5 1.0 3.0 0.00 0.00 0.00 91 1008.4
20260904094049 57 5 0.0 2.0 0.00 0.00 0.00 91 1008.3
20260904093549 57 5 0.0 1.0 0.00 0.00 0.00 91 1008.6
20260904093110 57 5 0.0 0.0 0.00 0.00 0.00 90 1008.4
20260904092046 57 5 0.0 2.0 0.00 0.00 0.00 90 1008.4
20260904091546 57 5 0.0 2.0 0.00 0.00 0.00 90 1008.3
20260904091043 57 5 0.0 2.0 0.00 0.00 0.00 89 1008.3
20260904090543 57 5 1.0 3.0 0.00 0.00 0.00 89 1008.1
20260904090047 57 5 1.0 3.0 0.00 0.00 0.00 89 1008.3
20260904090012 58 5 1.0 3.0 0.00 0.00 0.00 89 1008.3
20260904085545 58 5 1.0 3.0 0.00 0.00 0.00 88 1008.2
20260904085040 58 5 0.0 0.0 0.00 0.00 0.00 88 1008.2
20260904084541 58 5 0.0 0.0 0.00 0.00 0.00 88 1008.2
20260904084040 58 5 0.0 0.0 0.00 0.00 0.00 88 1008.3
20260904083539 58 5 0.0 0.0 0.00 0.00 0.00 88 1008.0
20260904083040 58 5 0.0 0.0 0.00 0.00 0.00 88 1008.1
20260904082039 58 5 0.0 0.0 0.00 0.00 0.00 87 1008.1
20260904081541 58 5 0.0 0.0 0.00 0.00 0.00 86 1008.0
20260904081040 58 5 0.0 0.0 0.00 0.00 0.00 86 1008.0
20260904080538 59 5 0.0 0.0 0.00 0.00 0.00 85 1008.0
20260904080040 59 5 0.0 2.0 0.00 0.00 0.00 84 1008.1
20260904075535 59 5 0.0 2.0 0.00 0.00 0.00 84 1008.0
20260904075034 60 5 0.0 3.0 0.00 0.00 0.00 83 1007.9
20260904074539 60 5 2.0 3.0 0.00 0.00 0.00 84 1008.1
20260904074036 60 5 1.0 3.0 0.00 0.00 0.00 83 1008.1
20260904073533 60 5 1.0 2.0 0.00 0.00 0.00 82 1008.0
20260904073032 61 5 0.0 2.0 0.00 0.00 0.00 82 1008.2
20260904072036 61 5 0.0 2.0 0.00 0.00 0.00 81 1008.1
20260904071536 61 5 0.0 2.0 0.00 0.00 0.00 81 1007.9
20260904071035 61 5 1.0 2.0 0.00 0.00 0.00 81 1008.0
20260904070536 62 5 0.0 2.0 0.00 0.00 0.00 80 1008.1
20260904070045 62 5 0.0 3.0 0.00 0.00 0.00 80 1007.9
20260904065537 62 5 0.0 2.0 0.00 0.00 0.00 79 1007.9
20260904065033 62 5 0.0 2.0 0.00 0.00 0.00 79 1007.8
20260904064543 61 5 0.0 2.0 0.00 0.00 0.00 78 1007.7
20260904064034 61 5 0.0 3.0 0.00 0.00 0.00 78 1007.6
20260904063531 61 5 1.0 3.0 0.00 0.00 0.00 77 1007.8
20260904063035 61 5 0.0 3.0 0.00 0.00 0.00 76 1007.7
20260904062027 61 5 0.0 2.0 0.00 0.00 0.00 75 1007.8
20260904061526 61 5 0.0 2.0 0.00 0.00 0.00 74 1007.8
20260904061026 61 5 0.0 2.0 0.00 0.00 0.00 73 1007.7
20260904060524 62 5 0.0 2.0 0.00 0.00 0.00 72 1007.6
20260904060024 62 5 0.0 3.0 0.00 0.00 0.00 71 1007.5
20260904055523 62 5 0.0 3.0 0.00 0.00 0.00 71 1007.5
20260904055024 62 5 0.0 2.0 0.00 0.00 0.00 70 1007.6
20260904054530 62 5 0.0 2.0 0.00 0.00 0.00 69 1007.7
20260904054023 62 5 0.0 3.0 0.00 0.00 0.00 69 1007.6
20260904053526 62 5 1.0 3.0 0.00 0.00 0.00 69 1007.5
20260904053022 62 5 1.0 4.0 0.00 0.00 0.00 67 1007.5
20260904052024 62 5 2.0 3.0 0.00 0.00 0.00 67 1007.5
20260904051524 62 5 1.0 3.0 0.00 0.00 0.00 66 1007.2
20260904051023 63 5 1.0 4.0 0.00 0.00 0.00 66 1007.2
20260904050523 62 5 2.0 3.0 0.00 0.00 0.00 67 1007.2
20260904050023 63 5 0.0 3.0 0.00 0.00 0.00 64 1007.3
20260904045525 63 5 0.0 3.0 0.00 0.00 0.00 64 1007.2
20260904045023 64 5 2.0 3.0 0.00 0.00 0.00 63 1007.3
20260904044531 64 5 2.0 3.0 0.00 0.00 0.00 62 1007.2
20260904044023 65 5 2.0 3.0 0.00 0.00 0.00 62 1007.0
20260904043524 65 5 2.0 3.0 0.00 0.00 0.00 62 1007.2
20260904043022 65 5 0.0 3.0 0.00 0.00 0.00 60 1007.3
20260904042019 67 5 2.0 4.0 0.00 0.00 0.00 59 1007.0
20260904041517 66 5 2.0 3.0 0.00 0.00 0.00 60 1007.0
20260904041017 66 360 0.0 2.0 0.00 0.00 0.00 60 1007.0
20260904040521 66 360 0.0 3.0 0.00 0.00 0.00 60 1007.0
20260904040016 66 360 0.0 3.0 0.00 0.00 0.00 60 1006.6
20260904035517 66 360 0.0 3.0 0.00 0.00 0.00 61 1006.5
20260904035016 66 360 1.0 4.0 0.00 0.00 0.00 62 1006.5
20260904034538 66 360 3.0 4.0 0.00 0.00 0.00 64 1006.4
20260904034019 66 360 1.0 3.0 0.00 0.00 0.00 64 1006.5
20260904033516 65 360 1.0 3.0 0.00 0.00 0.00 65 1006.6
20260904033015 65 360 2.0 3.0 0.00 0.00 0.00 63 1006.5
20260904032016 67 360 3.0 5.0 0.00 0.00 0.00 60 1006.7
20260904031517 67 334 2.0 3.0 0.00 0.00 0.00 60 1006.9
20260904031016 67 334 0.0 2.0 0.00 0.00 0.00 55 1006.9
20260904030516 67 334 0.0 2.0 0.00 0.00 0.00 55 1006.7
20260904030016 67 334 1.0 2.0 0.00 0.00 0.00 54 1006.7
20260904025516 68 334 0.0 2.0 0.00 0.00 0.00 53 1006.7
20260904025016 68 334 0.0 2.0 0.00 0.00 0.00 51 1006.8
20260904024516 69 334 0.0 2.0 0.00 0.00 0.00 50 1006.7
20260904024014 69 334 1.0 3.0 0.00 0.00 0.00 49 1006.8
20260904023513 70 334 0.0 3.0 0.00 0.00 0.00 49 1006.5
20260904023013 70 333 0.0 1.0 0.00 0.00 0.00 49 1006.4
20260904022017 71 333 0.0 0.0 0.00 0.00 0.00 47 1006.4
20260904021512 72 333 0.0 2.0 0.00 0.00 0.00 46 1006.4
20260904021012 73 336 0.0 5.0 0.00 0.00 0.00 45 1006.3
20260904020512 73 336 1.0 5.0 0.00 0.00 0.00 44 1006.1
20260904020012 74 287 0.0 3.0 0.00 0.00 0.00 44 1006.1
20260904015515 74 283 0.0 3.0 0.00 0.00 0.00 44 1006.0
20260904015012 75 265 0.0 0.0 0.00 0.00 0.00 43 1006.1
20260904014511 76 265 0.0 0.0 0.00 0.00 0.00 42 1006.0
20260904014012 76 265 0.0 0.0 0.00 0.00 0.00 42 1005.9
20260904013510 76 265 0.0 1.0 0.00 0.00 0.00 41 1005.8
20260904013011 77 265 0.0 3.0 0.00 0.00 0.00 41 1005.8
20260904012012 79 265 2.0 4.0 0.00 0.00 0.00 38 1005.6
20260904011537 80 263 1.0 4.0 0.00 0.00 0.00 37 1005.8
20260904011012 81 263 1.0 3.0 0.00 0.00 0.00 36 1005.7
20260904010512 82 259 1.0 4.0 0.00 0.00 0.00 35 1005.6
20260904010012 83 259 1.0 4.0 0.00 0.00 0.00 32 1005.6
20260904005517 83 247 1.0 6.0 0.00 0.00 0.00 28 1005.6
20260904005011 84 246 2.0 7.0 0.00 0.00 0.00 29 1005.2
20260904004511 84 246 3.0 11.0 0.00 0.00 0.00 25 1005.4
20260904004014 84 242 6.0 14.0 0.00 0.00 0.00 25 1005.3
20260904003521 84 231 9.0 16.0 0.00 0.00 0.00 24 1005.3
20260904003013 84 234 8.0 16.0 0.00 0.00 0.00 24 1005.2
20260904002013 85 227 10.0 15.0 0.00 0.00 0.00 25 1005.2
20260904001512 85 229 8.0 17.0 0.00 0.00 0.00 25 1005.3
20260904001012 85 257 11.0 17.0 0.00 0.00 0.00 24 1005.2
20260904000514 86 239 7.0 16.0 0.00 0.00 0.00 23 1005.1
20260904000020 86 236 9.0 16.0 0.00 0.00 0.00 22 1004.9
20260903235514 86 241 9.0 17.0 0.00 0.00 0.00 22 1004.9
20260903235011 87 246 10.0 17.0 0.00 0.00 0.00 21 1004.8
20260903234514 87 251 9.0 15.0 0.00 0.00 0.00 22 1004.7
20260903234010 87 265 7.0 14.0 0.00 0.00 0.00 22 1004.6
20260903233509 87 300 6.0 14.0 0.00 0.00 0.00 23 1004.5
20260903233018 88 223 5.0 10.0 0.00 0.00 0.00 23 1004.5
20260903232009 88 273 8.0 15.0 0.00 0.00 0.00 23 1004.5
20260903231508 88 249 7.0 15.0 0.00 0.00 0.00 22 1004.5
20260903231008 88 241 7.0 15.0 0.00 0.00 0.00 22 1004.4
20260903230510 88 232 8.0 12.0 0.00 0.00 0.00 24 1004.2
20260903230012 88 233 6.0 10.0 0.00 0.00 0.00 25 1004.1
20260903225508 88 279 5.0 10.0 0.00 0.00 0.00 27 1004.1
20260903225006 88 348 2.0 14.0 0.00 0.00 0.00 27 1004.0
20260903224505 88 275 6.0 12.0 0.00 0.00 0.00 27 1003.9
20260903224004 88 198 7.0 11.0 0.00 0.00 0.00 28 1003.9
20260903223507 86 213 4.0 7.0 0.00 0.00 0.00 28 1003.9
20260903223003 85 232 3.0 7.0 0.00 0.00 0.00 30 1004.0
20260903222005 85 315 1.0 3.0 0.00 0.00 0.00 30 1004.0
20260903221505 85 15 0.0 3.0 0.00 0.00 0.00 30 1003.9
20260903221006 85 12 0.0 3.0 0.00 0.00 0.00 31 1003.8
20260903220505 86 9 1.0 3.0 0.00 0.00 0.00 30 1003.8
20260903220008 86 9 1.0 3.0 0.00 0.00 0.00 30 1003.8
20260903215505 87 51 1.0 3.0 0.00 0.00 0.00 30 1003.8
20260903215006 87 51 0.0 5.0 0.00 0.00 0.00 29 1003.8
20260903214507 87 47 2.0 7.0 0.00 0.00 0.00 29 1003.7
20260903214005 86 293 2.0 7.0 0.00 0.00 0.00 30 1003.8
20260903213503 86 29 3.0 5.0 0.00 0.00 0.00 31 1003.8
20260903213006 86 259 2.0 11.0 0.00 0.00 0.00 31 1003.7
20260903212004 86 290 3.0 9.0 0.00 0.00 0.00 31 1003.9
20260903211507 86 355 4.0 9.0 0.00 0.00 0.00 32 1003.8
20260903211003 85 306 3.0 8.0 0.00 0.00 0.00 32 1003.6
20260903210503 85 305 3.0 8.0 0.00 0.00 0.00 31 1003.7
20260903210003 86 278 3.0 11.0 0.00 0.00 0.00 30 1003.7
20260903205502 87 323 4.0 11.0 0.00 0.00 0.00 30 1003.6
20260903205003 86 19 4.0 8.0 0.00 0.00 0.00 30 1003.7
20260903204502 87 281 3.0 9.0 0.00 0.00 0.00 29 1003.5
20260903204004 87 294 4.0 9.0 0.00 0.00 0.00 31 1003.8
20260903203600 86 355 2.0 8.0 0.00 0.00 0.00 33 1003.6
20260903203132 86 11 4.0 10.0 0.00 0.00 0.00 33 1003.6
20260903202056 85 327 2.0 5.0 0.00 0.00 0.00 32 1003.9
20260903201556 84 309 0.0 4.0 0.00 0.00 0.00 32 1003.9
20260903201055 85 309 1.0 4.0 0.00 0.00 0.00 31 1003.8
20260903200555 85 323 1.0 8.0 0.00 0.00 0.00 31 1003.6
20260903200059 85 313 3.0 8.0 0.00 0.00 0.00 31 1003.9
20260903195554 85 291 3.0 9.0 0.00 0.00 0.00 34 1003.7
20260903195052 85 268 5.0 10.0 0.00 0.00 0.00 32 1003.8
20260903194556 84 248 5.0 10.0 0.00 0.00 0.00 35 1003.8
20260903194049 83 286 2.0 5.0 0.00 0.00 0.00 36 1003.9
20260903193549 83 330 2.0 5.0 0.00 0.00 0.00 41 1003.9
20260903193047 82 211 1.0 8.0 0.00 0.00 0.00 44 1003.7
20260903192049 81 183 2.0 8.0 0.00 0.00 0.00 45 1003.8
20260903191553 81 130 3.0 8.0 0.00 0.00 0.00 48 1003.7
20260903191148 81 127 2.0 8.0 0.00 0.00 0.00 48 1003.6
20260903190550 81 104 1.0 7.0 0.00 0.00 0.00 51 1003.8
20260903190045 80 20 0.0 5.0 0.00 0.00 0.00 52 1003.8
20260903185547 80 5 1.0 5.0 0.00 0.00 0.00 53 1003.8
20260903185043 80 51 3.0 8.0 0.00 0.00 0.00 54 1003.8
20260903184542 79 152 3.0 8.0 0.00 0.00 0.00 55 1003.7
20260903184041 78 39 2.0 5.0 0.00 0.00 0.00 56 1003.6
20260903183539 78 29 1.0 5.0 0.00 0.00 0.00 56 1003.7
20260903183043 77 25 1.0 9.0 0.00 0.00 0.00 58 1003.7
20260903182038 78 196 2.0 4.0 0.00 0.00 0.00 59 1004.2
20260903181535 77 144 0.0 3.0 0.00 0.00 0.00 60 1004.3
20260903181032 75 123 0.0 4.0 0.00 0.00 0.00 61 1004.1
20260903180533 75 117 1.0 6.0 0.00 0.00 0.00 62 1004.1
20260903180029 74 49 2.0 6.0 0.00 0.00 0.00 62 1004.3
20260903175532 73 106 1.0 3.0 0.00 0.00 0.00 64 1004.2
20260903175029 73 106 1.0 3.0 0.00 0.00 0.00 63 1004.2
20260903174529 73 106 0.0 3.0 0.00 0.00 0.00 64 1004.3
20260903174033 73 106 2.0 3.0 0.00 0.00 0.00 64 1004.4
20260903173530 73 110 0.0 3.0 0.00 0.00 0.00 65 1004.4
20260903173029 72 111 1.0 3.0 0.00 0.00 0.00 66 1004.6
20260903172029 72 108 0.0 6.0 0.00 0.00 0.00 66 1004.8
20260903171537 72 105 2.0 8.0 0.00 0.00 0.00 66 1004.8
20260903171031 72 5 3.0 8.0 0.00 0.00 0.00 65 1005.0
20260903170528 72 135 1.0 8.0 0.00 0.00 0.00 67 1005.0
20260903170029 71 136 2.0 8.0 0.00 0.00 0.00 67 1004.9
20260903165528 71 237 0.0 4.0 0.00 0.00 0.00 69 1004.8
20260903165027 70 237 2.0 4.0 0.00 0.00 0.00 68 1004.8
20260903164528 70 202 0.0 4.0 0.00 0.00 0.00 69 1004.9
20260903164028 70 202 0.0 4.0 0.00 0.00 0.00 70 1004.7
20260903163527 70 205 1.0 8.0 0.00 0.00 0.00 70 1004.7
20260903163027 69 240 3.0 9.0 0.00 0.00 0.00 71 1005.1
20260903162032 69 144 6.0 10.0 0.00 0.00 0.00 71 1004.6
20260903161532 69 135 4.0 8.0 0.00 0.00 0.00 71 1004.7
20260903161031 68 150 5.0 11.0 0.00 0.00 0.00 71 1004.7
20260903160532 69 132 5.0 12.0 0.00 0.00 0.00 70 1004.7
20260903160034 69 167 7.0 14.0 0.00 0.00 0.00 70 1005.1
20260903155534 69 194 9.0 14.0 0.00 0.00 0.00 70 1005.2
20260903155031 69 164 4.0 11.0 0.00 0.00 0.00 70 1005.1
20260903154538 69 202 7.0 18.0 0.00 0.00 0.00 70 1005.2
20260903154033 69 205 9.0 18.0 0.00 0.00 0.00 70 1005.5
20260903153529 69 233 10.0 15.0 0.00 0.00 0.00 72 1006.0
20260903153031 68 232 3.0 10.0 0.00 0.00 0.00 72 1005.5
20260903152029 67 236 5.0 8.0 0.00 0.00 0.00 74 1005.5
20260903151525 67 192 3.0 6.0 0.00 0.00 0.00 74 1005.4
20260903151025 67 232 1.0 5.0 0.00 0.00 0.00 74 1005.4
20260903150525 67 234 1.0 7.0 0.00 0.00 0.00 75 1005.5
20260903150027 67 234 4.0 7.0 0.00 0.00 0.00 75 1005.6
20260903145527 67 238 1.0 5.0 0.00 0.00 0.00 75 1005.5
20260903145029 67 239 3.0 5.0 0.00 0.00 0.00 75 1005.7
20260903144540 66 64 1.0 3.0 0.00 0.00 0.00 75 1005.5
20260903144025 66 53 0.0 3.0 0.00 0.00 0.00 76 1005.1
20260903143523 66 39 1.0 3.0 0.00 0.00 0.00 77 1004.7
20260903143038 65 16 0.0 3.0 0.00 0.00 0.00 77 1004.8
20260903142022 65 282 0.0 2.0 0.00 0.00 0.00 78 1005.1
20260903141523 65 282 0.0 2.0 0.00 0.00 0.00 78 1005.1